Flag for Finland Weather past 2 weeks in Lappeenranta, Finland

Now
23 °F

Scattered clouds.


Feels Like: 11 °F
Forecast: 22 / 29 °F
Wind: 13 mph from Northeast

Location: Lappeenranta

Current Time: Oct 22, 2014 at 11:32:31 AM

Latest Report: Oct 22, 2014 at 10:50 AM


Visibility: N/A

Pressure: 30.21 "Hg

Humidity: 74%

Dew point: 16 °F

Location of LappeenrantaLocation

Historic Weather in Lappeenranta — Graph

°F

Lappeenranta temperature yesterday

Maximum temperature yesterday: 32 °F (at 12:20 AM)
Minimum temperature yesterday: 27 °F (at 8:20 PM)
Average temperature yesterday: 30 °F

Past Weeks' High & Low Weather Summary

 TemperatureHumidityPressure
High55 °F (Oct 10, 3:50 PM)100% (Oct 8, 6:20 PM)30.66 "Hg (Oct 8, 6:20 PM)
Low19 °F (Oct 22, 8:20 AM)52% (Oct 18, 2:50 PM)29.30 "Hg (Oct 20, 8:20 AM)
Average39 °F84%29.94 "Hg
* Reported Oct 7 10:20 AM — Oct 22 10:20 AM, Lappeenranta, Weather by CustomWeather, © 2014

Note: Actual official high and low records may vary slightly from our data, if they occured in-between our weather recording intervals... More about our weather records

Advertising

Lappeenranta weather history for previous 24 hours

 ConditionsComfort  
Time TempWeatherWind HumidityBarometerVisibility
10:20 AM
Oct 22
23 °FScattered clouds.13 mph74%30.21 "HgN/A
9:50 AM21 °FScattered clouds.13 mph80%30.21 "HgN/A
9:20 AM21 °FPassing clouds.12 mph80%30.18 "HgN/A
8:50 AM19 °FPassing clouds.10 mph86%30.18 "HgN/A
8:20 AM19 °FPassing clouds.10 mph86%30.18 "HgN/A
7:50 AM21 °FPartly cloudy.10 mph86%30.15 "HgN/A
7:20 AM23 °FPartly cloudy.10 mph86%30.15 "HgN/A
6:50 AM23 °FPassing clouds.9 mph74%30.12 "HgN/A
6:20 AM23 °FPassing clouds.10 mph74%30.12 "HgN/A
5:50 AM23 °FPassing clouds.12 mph80%30.12 "HgN/A
5:20 AM25 °FPassing clouds.12 mph69%30.09 "HgN/A
4:50 AM25 °FPassing clouds.10 mph74%30.09 "HgN/A
4:20 AM25 °FPassing clouds.10 mph74%30.09 "HgN/A
3:50 AM25 °FPassing clouds.12 mph74%30.07 "HgN/A
3:20 AM25 °FPassing clouds.12 mph74%30.07 "HgN/A
2:50 AM25 °FPassing clouds.10 mph74%30.07 "HgN/A
2:20 AM25 °FPassing clouds.12 mph74%30.07 "HgN/A
1:50 AM25 °FPassing clouds.12 mph74%30.04 "HgN/A
1:20 AM25 °FOvercast.12 mph74%30.04 "HgN/A
12:50 AM27 °FOvercast.13 mph69%30.04 "HgN/A
12:20 AM27 °FOvercast.13 mph69%30.01 "HgN/A
11:50 PM
Oct 21
27 °FPassing clouds.13 mph74%30.01 "HgN/A
11:20 PM27 °FPassing clouds.13 mph74%30.01 "HgN/A
10:50 PM27 °FPassing clouds.12 mph74%30.01 "HgN/A
10:20 PM27 °FOvercast.13 mph69%29.98 "HgN/A
9:50 PM27 °FOvercast.13 mph74%29.98 "HgN/A
9:20 PM27 °FOvercast.10 mph74%29.98 "HgN/A
8:50 PM27 °FPartly cloudy.10 mph69%29.98 "HgN/A
8:20 PM27 °FOvercast.10 mph74%29.95 "HgN/A
7:50 PM28 °FOvercast.13 mph74%29.95 "HgN/A
7:20 PM28 °FPassing clouds.12 mph74%29.92 "HgN/A
6:50 PM28 °FOvercast.7 mph69%29.92 "HgN/A
6:20 PM28 °FOvercast.9 mph74%29.92 "HgN/A
5:50 PM28 °FOvercast.6 mph80%29.89 "HgN/A
5:20 PM28 °FPartly sunny.5 mph74%29.89 "HgN/A
4:50 PM28 °FOvercast.6 mph80%29.89 "HgN/A
4:20 PM28 °FOvercast.7 mph80%29.86 "HgN/A
3:50 PM28 °FOvercast.8 mph80%29.86 "HgN/A
3:20 PM30 °FPartly sunny.12 mph69%29.86 "HgN/A
2:50 PM30 °FOvercast.12 mph69%29.86 "HgN/A
2:20 PM30 °FPartly sunny.12 mph69%29.83 "HgN/A
1:50 PM30 °FMostly cloudy.10 mph75%29.83 "HgN/A
1:20 PM30 °FOvercast.10 mph75%29.83 "HgN/A
12:50 PM30 °FOvercast.13 mph75%29.80 "HgN/A
12:20 PM30 °FPartly sunny.10 mph75%29.80 "HgN/A
11:50 AM30 °FOvercast.15 mph75%29.80 "HgN/A
11:20 AM30 °FPartly sunny.13 mph75%29.77 "HgN/A
Weather by CustomWeather, © 2014

See weather overviewHow to use our weather pages